Weather History for KBRL - August, 2013

Change the Weather History Date:

Tuesday, August 6, 2013

  Actual Average Record
Temperature  
Mean Temperature 77 °F 76 °F  
Max Temperature 88 °F 86 °F 103 °F (1947)
Min Temperature 66 °F 66 °F 50 °F (1948)
Degree Days  
Heating Degree Days 0 0  
Month to date heating degree days 0 0  
Since 1 June heating degree days 23 14  
Since 1 July heating degree days 8 1  
Cooling Degree Days 12 11  
Month to date cooling degree days 46 66  
Year to date cooling degree days 650 795  
Since 1 June cooling degree days 551 692  
Growing Degree Days 26 (Base 50)    
Moisture  
Dew Point 70 °F    
Average Humidity 80    
Maximum Humidity 100    
Minimum Humidity 59    
Precipitation  
Precipitation 0.00 in 0.12 in 1.45 in (1991)
Month to date precipitation T 0.76  
Year to date precipitation 27.06 23.74  
Sea Level Pressure  
Sea Level Pressure 29.86 in    
Wind  
Wind Speed 6 mph (SSW)    
Max Wind Speed 16 mph    
Max Gust Speed 21 mph    
Visibility 5 miles    
Events Fog    
T = Trace of Precipitation, MM = Missing Value Source: NWS Daily Summary

Daily Weather History Graph

Daily Weather History Graph

Search for Another Location

Airport or City:

Trip Planner

Search our weather history database for the weather conditions in past years. The results will help you decide how hot, cold, wet, or windy it might be!

Date:

Astronomy

Aug. 06, 2013 Rise Set
Actual Time 6:06 AM CDT 8:13 PM CDT
Civil Twilight 5:35 AM CDT 8:44 PM CDT
Nautical Twilight 4:58 AM CDT 9:21 PM CDT
Astronomical Twilight 4:18 AM CDT 10:01 PM CDT
Moon 5:57 AM CDT (8/6) 7:48 PM CDT (8/6)
Length of Visible Light 15h 08m
Length of Day
14h 07m
Waning Crescent, 0% of the Moon is Illuminated
Aug 6
Waning Crescent
Aug 6
New
Aug 14
First Quarter
Aug 20
Full
Aug 28
Last Quarter

Hourly Weather History & Observations

Time (CDT) Temp. Heat Index Dew Point Humidity Pressure Visibility Wind Dir Wind Speed Gust Speed Precip Events Conditions
12:53 AM 70.0 °F - 68.0 °F 93% 29.88 in 6.0 mi SSW 5.8 mph - N/A   Clear
1:53 AM 68.0 °F - 66.9 °F 96% 29.88 in 4.0 mi SW 3.5 mph - N/A   Clear
2:29 AM 66.2 °F - 66.2 °F 100% 29.88 in 1.8 mi Calm Calm - N/A   Clear
2:43 AM 66.2 °F - 66.2 °F 100% 29.87 in 0.8 mi Calm Calm - N/A   Mist
2:53 AM 66.9 °F - 66.9 °F 100% 29.85 in 0.5 mi Calm Calm - N/A Fog Fog
3:04 AM 66.2 °F - 66.2 °F 100% 29.86 in 0.2 mi South 4.6 mph - N/A Fog Fog
3:17 AM 66.2 °F - 66.2 °F 100% 29.85 in 1.0 mi South 4.6 mph - N/A   Mist
3:28 AM 66.2 °F - 66.2 °F 100% 29.85 in 2.5 mi South 4.6 mph - N/A   Overcast
3:42 AM 68.0 °F - 68.0 °F 100% 29.84 in 2.5 mi South 5.8 mph - N/A   Overcast
3:53 AM 68.0 °F - 68.0 °F 100% 29.83 in 2.5 mi South 8.1 mph - N/A   Overcast
4:06 AM 68.0 °F - 68.0 °F 100% 29.85 in 1.5 mi South 8.1 mph - N/A   Overcast
4:53 AM 68.0 °F - 68.0 °F 100% 29.83 in 0.8 mi SSW 8.1 mph - N/A   Mist
5:21 AM 68.0 °F - 68.0 °F 100% 29.85 in 1.0 mi South 8.1 mph - N/A   Mist
5:51 AM 68.0 °F - 68.0 °F 100% 29.86 in 2.0 mi South 9.2 mph - N/A   Overcast
5:53 AM 68.0 °F - 68.0 °F 100% 29.84 in 2.0 mi South 8.1 mph - N/A   Overcast
6:11 AM 68.0 °F - 68.0 °F 100% 29.86 in 1.5 mi South 5.8 mph - N/A   Overcast
6:53 AM 68.0 °F - 68.0 °F 100% 29.87 in 1.8 mi South 6.9 mph - N/A   Overcast
7:53 AM 68.0 °F - 68.0 °F 100% 29.90 in 0.8 mi SSW 6.9 mph - N/A   Overcast
8:08 AM 69.8 °F - 68.0 °F 94% 29.91 in 1.2 mi SSW 5.8 mph - N/A   Overcast
8:39 AM 69.8 °F - 69.8 °F 100% 29.91 in 2.5 mi SSW 6.9 mph - N/A   Overcast
8:50 AM 69.8 °F - 69.8 °F 100% 29.91 in 3.0 mi SSW 8.1 mph - N/A   Overcast
8:53 AM 70.0 °F - 69.1 °F 97% 29.90 in 3.0 mi SSW 8.1 mph - N/A   Overcast
9:11 AM 69.8 °F - 69.8 °F 100% 29.90 in 2.0 mi SSW 9.2 mph - N/A   Overcast
9:44 AM 71.6 °F - 69.8 °F 94% 29.90 in 3.0 mi SW 9.2 mph - N/A   Overcast
9:53 AM 72.0 °F - 71.1 °F 97% 29.89 in 4.0 mi SSW 8.1 mph - N/A   Overcast
10:53 AM 75.0 °F - 72.0 °F 90% 29.89 in 5.0 mi WSW 4.6 mph - N/A   Overcast
11:04 AM 75.2 °F - 71.6 °F 89% 29.90 in 5.0 mi Calm Calm - N/A   Overcast
11:28 AM 78.8 °F - 71.6 °F 78% 29.89 in 7.0 mi Calm Calm - N/A   Scattered Clouds
11:53 AM 79.0 °F - 73.0 °F 82% 29.87 in 7.0 mi SW 3.5 mph - N/A   Scattered Clouds
12:36 PM 82.4 °F 88.2 °F 73.4 °F 74% 29.88 in 7.0 mi Variable 3.5 mph - N/A   Mostly Cloudy
12:43 PM 82.4 °F 88.2 °F 73.4 °F 74% 29.88 in 7.0 mi Variable 3.5 mph - N/A   Scattered Clouds
12:53 PM 82.9 °F 89.4 °F 73.9 °F 74% 29.86 in 8.0 mi Calm Calm - N/A   Partly Cloudy
1:53 PM 84.9 °F 90.7 °F 72.0 °F 65% 29.83 in 9.0 mi Calm Calm - N/A   Clear
2:53 PM 84.9 °F 90.1 °F 71.1 °F 63% 29.79 in 10.0 mi SSE 10.4 mph - N/A   Clear
3:53 PM 87.1 °F 93.6 °F 72.0 °F 61% 29.81 in 10.0 mi South 6.9 mph - N/A   Clear
4:53 PM 87.1 °F 92.8 °F 71.1 °F 59% 29.81 in 10.0 mi SSW 5.8 mph - N/A   Clear
5:53 PM 86.0 °F 92.2 °F 72.0 °F 63% 29.82 in 10.0 mi SSW 6.9 mph - N/A   Clear
6:53 PM 82.9 °F 89.4 °F 73.9 °F 74% 29.81 in 10.0 mi South 9.2 mph - N/A   Partly Cloudy
7:53 PM 80.1 °F 84.5 °F 73.9 °F 81% 29.82 in 6.0 mi South 4.6 mph - N/A   Haze
8:53 PM 79.0 °F - 73.9 °F 84% 29.83 in 10.0 mi South 3.5 mph - N/A   Clear
9:53 PM 78.1 °F - 73.9 °F 87% 29.86 in 7.0 mi SSW 3.5 mph - N/A   Partly Cloudy
10:53 PM 75.0 °F - 72.0 °F 90% 29.85 in 6.0 mi Calm Calm - N/A   Clear
11:53 PM 75.9 °F - 73.0 °F 91% 29.81 in 10.0 mi SSW 11.5 mph - N/A   Clear